Date String (YYYY-MM-DD hh:mm:ss) UTC,Instrument flags,absolute air pressure of the measurement (hPa),sample flow rate (lpm),inlet stack bypass flow (lpm),air temperature of the measurement (°C),ambient temperature measured by the external sensor (°C),aerosol sample conditioner tube jacket temperature (°C),OPC LED temperature (°C),internal box temperature (°C),relative humidity of the measurement (%),span deviation,mass concentration of particles derived from Lorenz-Mie calculation of OPC scattering (μg/m³),mass concentration of particles derived from Lorenz-Mie calculation of OPC scattering (μg/m³),mass concentration of particles derived from Lorenz-Mie calculation of OPC scattering (μg/m³)
DateTimeUTC,F1_M11,P_M11,Q1_M11,Q2_M11,T1_M11,T2_M11,T3_M11,T4_M11,T5_M11,U1_M11,ZSPAN_M11,X0_M11,X2_M11,X1_M11
2023-07-30 09:00:00,SystemResetWarning,0835.7,4.98,000.00,029.6,026.8,000.0,037.9,031.0,32.9,0000.0,0012.58,0005.74,0004.79
2023-07-30 09:01:00,SystemResetWarning,0835.5,5.01,000.00,029.5,025.5,000.0,037.8,030.8,32.7,0000.0,0012.63,0005.72,0004.78
2023-07-30 09:02:00,SystemResetWarning,0835.5,5.01,000.00,029.4,025.3,000.0,037.8,030.5,32.3,0000.0,0012.69,0005.67,0004.78
2023-07-30 09:03:00,SystemResetWarning,0835.5,5.00,000.00,029.3,025.6,000.0,037.8,030.4,32.6,0000.0,0012.84,0005.62,0004.77
2023-07-30 09:04:00,SystemResetWarning,0835.5,5.00,000.00,029.2,026.0,000.0,037.8,030.5,32.5,0000.0,0012.11,0005.64,0004.77
2023-07-30 09:05:00,SystemResetWarning,0835.5,5.00,000.00,029.2,026.4,000.0,037.8,030.6,32.4,0000.0,0012.03,0005.63,0004.76
2023-07-30 09:06:00,SystemResetWarning,0835.6,5.00,000.00,029.2,026.7,000.0,037.8,030.7,31.9,0000.0,0010.51,0005.62,0004.77
2023-07-30 09:07:00,SystemResetWarning,0835.5,5.00,000.00,029.2,027.0,000.0,037.8,030.7,32.0,0000.0,0010.58,0005.64,0004.78
2023-07-30 09:08:00,SystemResetWarning,0835.5,5.00,000.00,029.3,027.2,000.0,037.8,030.7,32.1,0000.0,0010.64,0005.67,0004.79
2023-07-30 09:09:00,SystemResetWarning,0835.5,5.00,000.00,029.3,027.4,000.0,037.8,030.8,31.7,0000.0,0010.73,0005.69,0004.79
2023-07-30 09:10:00,SystemResetWarning,0835.5,5.00,000.00,029.3,027.6,000.0,037.8,030.8,31.6,0000.0,0011.00,0005.69,0004.80
2023-07-30 09:11:00,SystemResetWarning,0835.5,4.99,000.00,029.3,027.7,000.0,037.8,030.9,31.8,0000.0,0011.04,0005.67,0004.80
2023-07-30 09:12:00,SystemResetWarning,0835.5,5.00,000.00,029.3,027.9,000.0,037.8,030.9,31.7,0000.0,0011.49,0005.66,0004.79
2023-07-30 09:13:00,SystemResetWarning,0835.5,5.00,000.00,029.4,028.0,000.0,037.8,031.0,31.5,0000.0,0011.56,0005.65,0004.78
2023-07-30 09:14:00,SystemResetWarning,0835.5,5.00,000.00,029.4,028.0,000.0,037.8,031.0,31.0,0000.0,0012.22,0005.63,0004.78
2023-07-30 09:15:00,SystemResetWarning,0835.5,5.00,000.00,029.4,028.1,000.0,037.8,031.0,30.8,0000.0,0012.29,0005.61,0004.78
2023-07-30 09:16:00,SystemResetWarning,0835.5,5.00,000.00,029.4,028.2,000.0,037.8,031.0,30.6,0000.0,0012.56,0005.63,0004.78
2023-07-30 09:17:00,SystemResetWarning,0835.5,5.00,000.00,029.5,028.2,000.0,037.9,031.1,30.5,0000.0,0012.88,0005.66,0004.79
2023-07-30 09:18:00,SystemResetWarning,0835.5,5.00,000.00,029.5,028.3,000.0,037.9,031.1,30.3,0000.0,0013.01,0005.71,0004.81
2023-07-30 09:19:00,SystemResetWarning,0835.5,4.99,000.00,029.5,028.3,000.0,037.9,031.1,30.0,0000.0,0013.05,0005.74,0004.83
2023-07-30 09:20:00,SystemResetWarning,0835.5,5.00,000.00,029.5,028.4,000.0,037.9,031.2,30.1,0000.0,0013.16,0005.78,0004.86
2023-07-30 09:21:00,SystemResetWarning,0835.5,5.00,000.00,029.6,028.2,000.0,037.9,031.2,30.1,0000.0,0012.91,0005.77,0004.85
2023-07-30 09:22:00,SystemResetWarning,0835.5,5.00,000.00,029.5,026.6,000.0,037.8,031.0,30.3,0000.0,0012.89,0005.79,0004.86
2023-07-30 09:23:00,SystemResetWarning,0835.5,5.00,000.00,029.5,025.5,000.0,037.7,030.7,30.6,0000.0,0012.46,0005.81,0004.88
2023-07-30 09:24:00,SystemResetWarning,0835.5,5.00,000.00,029.3,025.3,000.0,037.7,030.4,30.8,0000.0,0012.80,0005.85,0004.89
2023-07-30 09:25:00,SystemResetWarning,0835.4,5.01,000.00,029.2,025.6,000.0,037.7,030.4,31.0,0000.0,0012.30,0005.89,0004.90
2023-07-30 09:26:00,SystemResetWarning,0835.5,5.00,000.00,029.2,026.0,000.0,037.7,030.5,33.0,0000.0,0012.29,0005.89,0004.90
2023-07-30 09:27:00,SystemResetWarning,0835.4,5.00,000.00,029.2,026.4,000.0,037.7,030.6,31.3,0000.0,0012.67,0005.89,0004.89
2023-07-30 09:28:00,SystemResetWarning,0835.4,5.00,000.00,029.2,026.7,000.0,037.7,030.6,30.7,0000.0,0012.34,0005.88,0004.89
2023-07-30 09:29:00,SystemResetWarning,0835.4,4.99,000.00,029.2,027.0,000.0,037.7,030.7,30.6,0000.0,0011.94,0005.82,0004.88
2023-07-30 09:30:00,SystemResetWarning,0835.5,5.01,000.00,029.2,027.3,000.0,037.7,030.7,30.8,0000.0,0012.19,0005.82,0004.86
2023-07-30 09:31:00,SystemResetWarning,0835.5,5.00,000.00,029.2,027.5,000.0,037.7,030.8,31.0,0000.0,0012.63,0005.80,0004.84
2023-07-30 09:32:00,SystemResetWarning,0835.4,4.99,000.00,029.3,027.6,000.0,037.7,030.8,30.0,0000.0,0012.51,0005.78,0004.84
2023-07-30 09:33:00,SystemResetWarning,0835.4,4.99,000.00,029.3,027.8,000.0,037.7,030.9,30.2,0000.0,0012.51,0005.76,0004.83
2023-07-30 09:34:00,SystemResetWarning,0835.3,5.00,000.00,029.3,027.9,000.0,037.8,030.9,29.6,0000.0,0012.49,0005.75,0004.81
2023-07-30 09:35:00,SystemResetWarning,0835.4,5.00,000.00,029.3,028.0,000.0,037.8,030.9,29.2,0000.0,0012.23,0005.73,0004.79
2023-07-30 09:36:00,SystemResetWarning,0835.3,5.01,000.00,029.3,028.0,000.0,037.8,031.0,29.0,0000.0,0011.42,0005.68,0004.78
2023-07-30 09:37:00,SystemResetWarning,0835.3,5.01,000.00,029.4,028.1,000.0,037.8,031.0,28.8,0000.0,0012.00,0005.66,0004.77
2023-07-30 09:38:00,SystemResetWarning,0835.3,5.01,000.00,029.4,028.2,000.0,037.8,031.0,28.9,0000.0,0011.97,0005.64,0004.76
2023-07-30 09:39:00,SystemResetWarning,0835.3,5.00,000.00,029.4,028.2,000.0,037.8,031.1,29.0,0000.0,0011.45,0005.57,0004.73
2023-07-30 09:40:00,SystemResetWarning,0835.3,4.99,000.00,029.5,028.3,000.0,037.8,031.1,29.4,0000.0,0012.59,0005.62,0004.70
2023-07-30 09:41:00,SystemResetWarning,0835.3,4.99,000.00,029.5,028.3,000.0,037.9,031.1,28.8,0000.0,0013.16,0005.58,0004.68
2023-07-30 09:42:00,SystemResetWarning,0835.3,5.00,000.00,029.5,028.3,000.0,037.9,031.1,28.6,0000.0,0012.87,0005.53,0004.67
2023-07-30 09:43:00,SystemResetWarning,0835.2,5.01,000.00,029.6,028.4,000.0,037.9,031.2,28.4,0000.0,0013.04,0005.54,0004.66
2023-07-30 09:44:00,SystemResetWarning,0835.2,5.01,000.00,029.6,028.4,000.0,037.9,031.2,28.3,0000.0,0013.26,0005.57,0004.66
2023-07-30 09:45:00,SystemResetWarning,0835.3,5.00,000.00,029.6,028.2,000.0,037.9,031.2,28.4,0000.0,0013.30,0005.59,0004.69
2023-07-30 09:46:00,SystemResetWarning,0835.2,4.98,000.00,029.6,026.6,000.0,037.8,030.9,28.4,0000.0,0013.23,0005.59,0004.70
2023-07-30 09:47:00,SystemResetWarning,0835.2,5.01,000.00,029.5,025.4,000.0,037.7,030.7,28.5,0000.0,0014.04,0005.58,0004.68
2023-07-30 09:48:00,SystemResetWarning,0835.3,5.01,000.00,029.4,025.3,000.0,037.7,030.4,28.6,0000.0,0014.03,0005.62,0004.67
2023-07-30 09:49:00,SystemResetWarning,0835.3,4.98,000.00,029.2,025.6,000.0,037.7,030.4,28.5,0000.0,0013.65,0005.65,0004.68
2023-07-30 09:50:00,SystemResetWarning,0835.3,4.99,000.00,029.2,026.0,000.0,037.7,030.5,28.5,0000.0,0013.79,0005.70,0004.69
2023-07-30 09:51:00,SystemResetWarning,0835.3,5.02,000.00,029.2,026.4,000.0,037.7,030.6,28.5,0000.0,0013.07,0005.64,0004.69
2023-07-30 09:52:00,SystemResetWarning,0835.3,5.01,000.00,029.2,026.7,000.0,037.7,030.6,28.1,0000.0,0012.89,0005.63,0004.67
2023-07-30 09:53:00,SystemResetWarning,0835.3,4.99,000.00,029.2,027.0,000.0,037.7,030.7,28.0,0000.0,0012.66,0005.60,0004.64
2023-07-30 09:54:00,SystemResetWarning,0835.3,5.00,000.00,029.2,027.2,000.0,037.7,030.7,27.9,0000.0,0012.33,0005.55,0004.61
2023-07-30 09:55:00,SystemResetWarning,0835.3,5.00,000.00,029.2,027.4,000.0,037.7,030.8,27.8,0000.0,0012.58,0005.49,0004.59
2023-07-30 09:56:00,SystemResetWarning,0835.3,5.00,000.00,029.2,027.6,000.0,037.7,030.8,27.5,0000.0,0012.50,0005.39,0004.54
2023-07-30 09:57:00,SystemResetWarning,0835.3,5.01,000.00,029.3,027.7,000.0,037.7,030.9,27.0,0000.0,0012.61,0005.37,0004.51
2023-07-30 09:58:00,SystemResetWarning,0835.2,5.00,000.00,029.3,027.8,000.0,037.7,030.9,26.8,0000.0,0011.76,0005.34,0004.50
2023-07-30 09:59:00,SystemResetWarning,0835.3,5.00,000.00,029.3,027.9,000.0,037.8,030.9,26.9,0000.0,0011.18,0005.26,0004.47
